[[{"header":{"parameterUnit":"m.s-1","parameterCategory":1,"la1":30.2991,"la2":30.254,"lo1":-89.0895,"lo2":-89.0444,"dy":0.0017,"dx":0.0017,"nx":28,"ny":28,"refTime":"2024-12-08T03:00:00:Z","depth":0,"parameterNumber":2,"parameterNumberName":"U-component_of_WINDS"},"data":[0,0,0,0,0,0,0,0,0,0,0,0,0,0,0,0,0,0,0,0,0,0,0,0,0,0,0,0,0,0,0,0,0,0,0,0,0,0,0,0,0,0,0,0,0,0,0,0,0,0,0,0,0,0,0,0,0,0,-0.2333,-0.2335,0,-0.2462,-0.2464,-0.2465,-0.2554,-0.2555,-0.2555,-0.2556,-0.2694,-0.2697,-0.27,0,0,0,0,0,0,0,0,0,0,0,0,0,-0.217,-0.2173,-0.2333,-0.2335,-0.2337,-0.2462,-0.2464,-0.2465,-0.2554,-0.2555,-0.2556,-0.2556,-0.2693,-0.2696,-0.27,0,0,0,0,0,0,0,0,0,0,0,0,0,-0.2264,-0.2174,-0.2333,-0.2396,-0.2403,-0.2461,-0.2464,-0.2466,-0.2554,-0.2555,-0.2556,-0.2557,-0.2692,-0.2696,-0.2701,-0.2709,0,0,-0.2715,-0.2717,0,0,0,0,0,0,0,0,-0.2259,-0.227,-0.2385,-0.2391,-0.2399,-0.2493,-0.2457,-0.2548,-0.2554,-0.2497,-0.2556,-0.2557,-0.2627,-0.2637,-0.2659,-0.2716,-0.2722,-0.2715,-0.2718,-0.272,-0.2721,0,0,0,0,0,0,0,-0.2252,-0.2265,-0.2385,-0.2386,-0.2395,-0.2419,-0.2434,-0.2474,-0.2555,-0.2502,-0.2508,-0.2522,-0.2631,-0.2654,-0.2663,-0.2724,-0.2715,-0.2719,-0.2722,-0.2724,-0.2795,-0.2794,0,0,0,0,0,0,-0.2235,-0.2259,-0.238,-0.2388,-0.233,-0.2421,-0.2438,-0.2462,-0.2554,-0.2569,-0.2521,-0.2526,-0.2646,-0.2657,-0.2668,-0.2684,-0.272,-0.2724,-0.2727,-0.2796,-0.2795,-0.2794,0,0,0,0,0,0,-0.2231,-0.2245,-0.2375,-0.2326,-0.2344,-0.2423,-0.245,-0.2464,-0.2487,-0.2569,-0.2584,-0.253,-0.2647,-0.2661,-0.2698,-0.269,-0.2726,-0.273,-0.2797,-0.2796,-0.2794,-0.2716,0,0,0,0,0,0,-0.2226,-0.2243,-0.2246,-0.2325,-0.2346,-0.2401,-0.2449,-0.2466,-0.2494,-0.2502,-0.2581,-0.2596,-0.2649,-0.2691,-0.2702,-0.2697,-0.2734,-0.2798,-0.2796,-0.2795,-0.272,-0.2712,-0.2706,0,0,0,0,0,-0.222,-0.222,-0.2245,-0.226,-0.2351,-0.24,-0.2413,-0.2472,-0.2493,-0.2498,-0.255,-0.2593,-0.2689,-0.2694,-0.2708,-0.2703,-0.2799,-0.2797,-0.2795,-0.2723,-0.2714,-0.2706,0,0,0,0,0,0,-0.214,-0.2231,-0.2261,-0.2286,-0.2334,-0.2415,-0.2422,-0.2461,-0.2506,-0.2511,-0.2586,-0.2603,-0.2632,-0.2672,-0.2675,-0.2717,-0.2749,-0.275,-0.269,-0.2682,-0.2675,-0.2664,-0.2738,0,0,0,0,0,-0.2125,-0.2155,-0.2235,-0.2249,-0.2272,-0.2342,-0.2366,-0.2408,-0.2462,-0.2484,-0.2539,-0.2592,-0.2634,-0.266,-0.2704,-0.2726,-0.2745,-0.2731,-0.2724,-0.2718,-0.2717,-0.2732,-0.2727,-0.2788,-0.2788,-0.2788,0,0,-0.2095,-0.2148,-0.2164,-0.2234,-0.2277,-0.2308,-0.2359,-0.2391,-0.2416,-0.249,-0.2526,-0.2569,-0.2633,-0.2662,-0.2678,-0.2697,-0.2705,-0.2715,-0.271,-0.2713,-0.273,-0.2724,-0.2719,-0.2786,-0.2787,-0.2787,0,0,-0.2055,-0.2099,-0.2115,-0.2156,-0.2219,-0.2267,-0.227,-0.2346,-0.2376,-0.2414,-0.247,-0.2502,-0.2573,-0.2616,-0.2647,-0.2624,-0.2665,-0.2636,-0.26,-0.2614,-0.2609,-0.2605,-0.2596,-0.2593,-0.2636,-0.2636,-0.2635,0,-0.201,-0.2058,-0.212,-0.2147,-0.2177,-0.2243,-0.2262,-0.23,-0.2374,-0.2394,-0.2413,-0.2503,-0.2551,-0.2592,-0.2586,-0.2609,-0.2617,-0.2627,-0.2604,-0.2601,-0.2598,-0.2591,-0.2588,-0.2632,-0.2632,-0.2632,-0.2633,0,-0.1999,-0.2032,-0.2038,-0.2106,-0.2137,-0.216,-0.2226,-0.2251,-0.229,-0.2335,-0.2374,-0.2434,-0.249,-0.2503,-0.2542,-0.2549,-0.2558,-0.259,-0.2623,-0.2587,-0.2582,-0.258,-0.2626,-0.2627,-0.2628,-0.2629,0,0,-0.1913,-0.2014,-0.2015,-0.2046,-0.2121,-0.2148,-0.2175,-0.2228,-0.2247,-0.2297,-0.2322,-0.238,-0.2409,-0.2445,-0.249,-0.2502,-0.248,-0.2533,-0.2535,-0.252,-0.2491,-0.2466,-0.2462,-0.2508,-0.2507,-0.2507,-0.2485,0,-0.1885,-0.1933,-0.1989,-0.2019,-0.205,-0.2114,-0.2137,-0.2186,-0.223,-0.2264,-0.2314,-0.2353,-0.2389,-0.2411,-0.2426,-0.2479,-0.2475,-0.2482,-0.2533,-0.2534,-0.2513,-0.2459,-0.2433,-0.2409,-0.2484,-0.2483,-0.2483,0,-0.1858,-0.1902,-0.1933,-0.2005,-0.202,-0.2039,-0.2093,-0.2124,-0.2182,-0.2213,-0.2252,-0.2299,-0.2333,-0.2362,-0.241,-0.2413,-0.2438,-0.2467,-0.2468,-0.2474,-0.2505,-0.2464,-0.2403,-0.2399,-0.248,-0.2481,-0.2481,0,-0.1791,-0.1858,-0.1886,-0.1911,-0.1995,-0.2007,-0.2043,-0.2102,-0.213,-0.2177,-0.2196,-0.2248,-0.2276,-0.2315,-0.2377,-0.2393,-0.2417,-0.2452,-0.2445,-0.2443,-0.2447,-0.2445,-0.2389,-0.2463,-0.2463,-0.2463,-0.2463,0,-0.1753,-0.177,-0.1857,-0.1874,-0.1895,-0.1961,-0.1981,-0.2023,-0.2074,-0.2102,-0.2162,-0.2187,-0.2266,-0.2301,-0.235,-0.2381,-0.2394,-0.2421,-0.2433,-0.2415,-0.2411,-0.2432,-0.2435,-0.2462,-0.2463,-0.2463,-0.2463,0,-0.1682,-0.174,-0.1775,-0.185,-0.187,-0.1882,-0.1949,-0.1969,-0.2015,-0.2049,-0.2062,-0.2136,-0.218,-0.2245,-0.231,-0.2342,-0.2366,-0.2387,-0.2346,-0.2353,-0.2342,-0.2342,-0.2296,-0.2293,-0.2369,-0.2368,-0.2367,0,-0.1653,-0.1668,-0.1744,-0.1766,-0.1799,-0.1833,-0.1862,-0.1928,-0.1955,-0.2022,-0.2034,-0.2082,-0.2124,-0.2193,-0.2254,-0.2304,-0.2326,-0.2306,-0.2334,-0.2315,-0.2325,-0.2323,-0.2325,-0.2299,-0.2298,-0.2297,-0.2296,0,-0.1597,-0.1625,-0.1662,-0.1709,-0.1741,-0.1782,-0.1827,-0.1842,-0.1918,-0.1946,-0.199,-0.2023,-0.2088,-0.2136,-0.2194,-0.2234,-0.2278,-0.2287,-0.2288,-0.2269,-0.2244,-0.2257,-0.2327,-0.2288,-0.2289,-0.2289,-0.229,-0.229,-0.1546,-0.1562,-0.1617,-0.1657,-0.1697,-0.1736,-0.1758,-0.1807,-0.1845,-0.1901,-0.1938,-0.1981,-0.204,-0.2122,-0.2159,-0.2195,-0.2214,-0.2215,-0.2215,-0.2214,-0.2207,-0.2239,-0.2206,-0.2206,-0.2207,-0.2207,-0.2207,0,-0.1492,-0.1531,-0.1567,-0.1625,-0.1657,-0.1694,-0.1745,-0.1769,-0.1805,-0.1855,-0.1894,-0.1946,-0.1992,-0.2056,-0.2108,-0.2124,-0.2146,-0.2136,-0.2135,-0.2144,-0.2188,-0.2182,-0.2117,-0.2117,-0.2117,-0.2117,-0.2117,-0.2117,-0.1468,-0.1495,-0.153,-0.1578,-0.1618,-0.1658,-0.1684,-0.1722,-0.1761,-0.1815,-0.1853,-0.1894,-0.195,-0.2006,-0.2051,-0.2069,-0.2085,-0.2068,-0.2092,-0.2132,-0.2141,-0.2148,-0.2143,-0.2071,-0.2071,-0.2045,-0.2045,-0.2044]},{"header":{"parameterUnit":"m.s-1","parameterCategory":1,"la1":30.2991,"la2":30.254,"lo1":-89.0895,"lo2":-89.0444,"dy":0.0017,"dx":0.0017,"nx":28,"ny":28,"refTime":"2024-12-08T03:00:00:Z","depth":0,"parameterNumber":3,"parameterNumberName":"V-component_of_WINDS"},"data":[0,0,0,0,0,0,0,0,0,0,0,0,0,0,0,0,0,0,0,0,0,0,0,0,0,0,0,0,0,0,0,0,0,0,0,0,0,0,0,0,0,0,0,0,0,0,0,0,0,0,0,0,0,0,0,0,0,0,3.7617,3.7618,0,3.7718,3.7719,3.772,3.7709,3.7707,3.7706,3.7704,3.7803,3.7807,3.7811,0,0,0,0,0,0,0,0,0,0,0,0,0,3.7412,3.7416,3.7617,3.7618,3.7619,3.7717,3.7719,3.772,3.7709,3.7707,3.7705,3.7703,3.7802,3.7807,3.7812,0,0,0,0,0,0,0,0,0,0,0,0,0,3.7506,3.7417,3.7617,3.7626,3.7628,3.7717,3.7719,3.772,3.7709,3.7707,3.7705,3.7702,3.78,3.7806,3.7813,3.7898,0,0,3.7831,3.7834,0,0,0,0,0,0,0,0,3.75,3.7513,3.7623,3.7625,3.7627,3.7698,3.7683,3.778,3.771,3.7678,3.7704,3.7701,3.777,3.7779,3.7803,3.7903,3.7907,3.7832,3.7836,3.7838,3.784,0,0,0,0,0,0,0,3.7494,3.7509,3.7656,3.7625,3.7627,3.7624,3.7635,3.7701,3.7736,3.7681,3.768,3.7693,3.7771,3.7797,3.7805,3.7909,3.7832,3.7837,3.7841,3.7844,3.8087,3.8089,0,0,0,0,0,0,3.7486,3.7504,3.7653,3.766,3.7557,3.763,3.7641,3.7678,3.7735,3.7742,3.7694,3.7692,3.7787,3.7798,3.7808,3.7915,3.7838,3.7844,3.7848,3.8084,3.8087,3.809,0,0,0,0,0,0,3.7481,3.7499,3.7649,3.7582,3.76,3.7636,3.7677,3.7681,3.7707,3.7746,3.7752,3.7715,3.7786,3.78,3.7877,3.7918,3.7847,3.7853,3.8081,3.8085,3.8089,3.8127,0,0,0,0,0,0,3.7476,3.7498,3.7531,3.7582,3.7604,3.7717,3.7679,3.7685,3.7718,3.7715,3.7766,3.7772,3.7785,3.7868,3.7883,3.7925,3.7857,3.8077,3.8083,3.8088,3.8122,3.8132,3.814,0,0,0,0,0,3.7468,3.7537,3.7533,3.7551,3.7647,3.7719,3.7732,3.7746,3.7721,3.7755,3.7781,3.7771,3.7911,3.7876,3.7893,3.7937,3.8075,3.8081,3.8087,3.8118,3.813,3.814,0,0,0,0,0,0,3.7488,3.7543,3.754,3.7627,3.7669,3.7717,3.7761,3.7757,3.7806,3.7801,3.7815,3.7827,3.7906,3.7929,3.7889,3.8025,3.7989,3.7999,3.8007,3.8019,3.8027,3.8021,3.7863,0,0,0,0,0,3.7502,3.7558,3.7603,3.7675,3.7696,3.7725,3.7757,3.7765,3.7808,3.7825,3.7856,3.7897,3.7951,3.7985,3.8036,3.8125,3.8137,3.8164,3.8173,3.818,3.8189,3.824,3.8253,3.8111,3.8111,3.8111,0,0,3.7533,3.757,3.7604,3.768,3.7713,3.777,3.774,3.78,3.7843,3.7834,3.791,3.7934,3.7981,3.8065,3.8103,3.8087,3.8231,3.8188,3.8193,3.8199,3.8248,3.8261,3.8273,3.8115,3.8114,3.8113,0,0,3.7618,3.7651,3.7716,3.7751,3.7802,3.7821,3.7836,3.7886,3.7902,3.7979,3.7974,3.8024,3.8115,3.815,3.8179,3.8279,3.8273,3.8295,3.8342,3.8392,3.8403,3.8413,3.8451,3.8464,3.8303,3.8303,3.8303,0,3.7649,3.7735,3.7749,3.7812,3.7846,3.7842,3.7909,3.7941,3.8006,3.8029,3.801,3.8126,3.8157,3.825,3.8275,3.8298,3.8317,3.829,3.84,3.8411,3.842,3.8457,3.8471,3.8306,3.8305,3.8305,3.8305,0,3.7772,3.7832,3.7878,3.7944,3.7983,3.8046,3.807,3.8108,3.8112,3.8133,3.8212,3.8249,3.8309,3.8331,3.8334,3.8426,3.8414,3.8397,3.8362,3.8436,3.8471,3.8485,3.8309,3.8308,3.8308,3.8307,0,0,3.7872,3.7946,3.7963,3.7994,3.8051,3.8097,3.8161,3.8221,3.8254,3.8298,3.8353,3.8431,3.8417,3.845,3.8458,3.8501,3.8581,3.8479,3.848,3.8499,3.8686,3.87,3.8716,3.8576,3.8578,3.8581,3.8683,0,3.7965,3.808,3.8096,3.8197,3.8254,3.8251,3.8307,3.8348,3.8369,3.8419,3.8441,3.8498,3.8473,3.8494,3.8536,3.8562,3.8619,3.8554,3.8628,3.863,3.8619,3.8734,3.8749,3.8843,3.8696,3.8698,3.87,0,3.8089,3.814,3.8248,3.8299,3.8323,3.8373,3.8431,3.8479,3.8525,3.8537,3.8576,3.8578,3.8645,3.8606,3.8698,3.8654,3.8684,3.8701,3.8705,3.8715,3.8671,3.8748,3.8873,3.8889,3.8721,3.8719,3.8718,0,3.8155,3.825,3.8327,3.8353,3.8414,3.845,3.8477,3.8521,3.8557,3.8606,3.863,3.8685,3.8717,3.876,3.8777,3.8747,3.8869,3.8831,3.8882,3.8882,3.891,3.8908,3.9044,3.8925,3.8925,3.8925,3.8924,0,3.8258,3.8325,3.8358,3.8406,3.8481,3.8498,3.8571,3.8596,3.8636,3.8689,3.8688,3.8737,3.8756,3.8809,3.8822,3.8898,3.8911,3.8923,3.8927,3.8925,3.8924,3.8947,3.8942,3.8928,3.8928,3.8927,3.8926,0,3.8345,3.837,3.8455,3.8507,3.8521,3.8574,3.8618,3.8665,3.8685,3.8752,3.8769,3.8801,3.8863,3.8884,3.8958,3.8968,3.9057,3.9052,3.9042,3.9043,3.9094,3.909,3.9252,3.9275,3.9138,3.9139,3.914,0,3.8411,3.8463,3.8521,3.8557,3.8586,3.8643,3.8681,3.8698,3.8737,3.8795,3.8835,3.8897,3.8947,3.9046,3.9076,3.9133,3.9133,3.9185,3.9141,3.9139,3.9137,3.9135,3.9141,3.9194,3.9196,3.9197,3.9198,0,3.8526,3.8536,3.8591,3.865,3.8696,3.8743,3.8788,3.8818,3.8842,3.8886,3.895,3.899,3.9067,3.9129,3.9188,3.9214,3.9211,3.9211,3.9227,3.9227,3.922,3.9228,3.9067,3.9208,3.9207,3.9206,3.9206,3.9205,3.8606,3.8653,3.8702,3.8763,3.88,3.8843,3.8891,3.8918,3.8972,3.9038,3.9044,3.9115,3.916,3.924,3.9269,3.9324,3.9309,3.9331,3.9337,3.9343,3.9349,3.9209,3.9334,3.9334,3.9334,3.9334,3.9333,0,3.8724,3.8755,3.8811,3.8877,3.8925,3.8918,3.8969,3.901,3.9072,3.9116,3.9167,3.9241,3.9302,3.9337,3.9397,3.9435,3.9435,3.945,3.9449,3.9456,3.9356,3.9339,3.9449,3.9449,3.9449,3.9449,3.9449,3.9449,3.8791,3.8871,3.8887,3.8986,3.9016,3.9086,3.9116,3.9156,3.9192,3.9276,3.9327,3.935,3.9391,3.9454,3.951,3.9518,3.9542,3.956,3.9567,3.9474,3.9462,3.9451,3.9435,3.9564,3.9564,3.9663,3.9663,3.9664]}]]